Wind_Speed
26 25 24 22 20 19 18 17 16 15 15 15 15 17 21 25 27 28 28 29 29 29 29 29 28 27 26 25 24 23 23 23 22 22 22 22 22 22 21 20 19 18 17 16 16 16 16 16 17 17 17 18 18 19 19 20 20 19 19 18 18 18 17 17 17 17 17 17 17 17 17 17 18 19 20 20 21 21 21 21 20 20 20 20 20 20
24 23 21 20 19 17 17 17 16 15 15 15 15 16 18 22 26 28 28 29 29 29 29 28 27 26 24 23 23 22 22 22 21 21 21 20 20 19 17 17 16 16 15 15 15 16 16 16 17 17 17 17 17 17 18 18 18 17 17 17 17 17 17 18 18 18 19 19 19 20 20 21 21 22 22 23 23 23 22 22 22 21 21 20 20 20
22 21 20 19 18 17 17 17 16 16 15 14 14 14 16 19 23 26 28 29 29 28 28 27 25 23 22 22 22 21 21 20 20 19 19 18 16 15 15 15 15 15 15 16 16 17 17 18 18 18 18 18 17 17 17 17 17 17 17 17 17 18 18 18 19 19 20 20 20 21 21 22 22 23 23 23 22 22 22 21 21 20 20 19 19 18
20 19 18 17 17 16 16 15 15 14 13 12 12 12 13 16 19 21 23 25 25 25 24 23 22 21 21 21 20 20 19 19 18 17 16 15 14 14 14 14 15 15 16 17 18 19 19 19 20 20 19 19 19 18 18 18 18 18 18 18 18 18 18 19 18 18 18 18 19 19 20 20 21 21 21 21 21 20 20 19 19 18 18 17 17 17
17 16 16 15 14 14 14 13 12 11 11 10 10 10 11 12 14 16 17 17 18 19 19 19 19 19 19 19 18 18 18 17 16 14 13 13 13 14 14 15 16 17 18 19 19 20 20 21 21 21 20 20 19 19 19 19 19 19 18 18 18 18 17 17 17 17 17 17 17 18 18 18 18 18 18 18 18 18 17 17 17 17 17 17 17 17
15 14 13 13 12 11 11 10 10 9 9 9 9 9 9 10 11 12 12 13 14 15 16 16 17 17 16 16 16 16 16 15 14 13 13 13 13 14 14 15 16 17 18 19 20 20 21 21 21 21 20 19 18 18 18 17 17 17 17 17 16 16 17 17 18 18 18 18 18 18 18 18 18 17 17 17 17 17 16 16 16 16 17 17 17 17
12 11 11 10 9 9 8 8 8 8 8 8 8 8 8 8 9 9 10 11 12 13 13 14 14 14 14 14 14 14 14 13 13 12 13 13 13 13 14 15 16 17 18 19 20 20 20 20 20 19 18 17 16 15 15 15 15 15 16 16 17 19 19 20 20 21 20 20 19 19 18 18 18 17 17 17 17 16 16 16 16 16 16 16 16 16
9 9 8 8 7 7 7 7 7 7 7 7 7 7 7 7 8 8 9 10 11 11 12 12 12 12 12 13 13 13 13 12 12 12 12 13 13 13 14 15 17 18 19 20 20 20 20 20 19 18 17 16 16 15 15 16 16 17 18 19 21 22 22 22 22 22 21 20 19 19 18 18 17 17 16 16 16 16 16 16 16 16 16 16 16 16
7 7 7 7 7 6 6 6 6 7 6 7 7 6 6 7 7 8 9 10 10 11 11 11 11 11 12 12 12 12 12 12 12 12 12 12 13 14 15 17 18 19 20 20 21 21 21 20 20 19 19 19 19 19 19 20 20 21 22 23 23 23 23 23 22 21 20 19 19 18 18 17 17 16 16 16 15 15 15 15 15 15 16 16 16 16
7 7 7 7 7 6 5 6 6 7 7 7 7 7 7 7 8 9 9 9 10 10 11 11 10 11 11 12 12 11 11 11 11 12 12 13 14 16 17 19 20 20 21 21 22 22 22 22 22 22 22 22 22 22 23 23 23 24 24 24 24 24 23 22 21 20 19 19 18 18 17 17 16 16 16 15 15 15 15 15 15 16 16 16 17 17
8 8 8 8 8 8 7 7 8 8 8 8 8 9 9 9 9 9 9 9 9 10 10 10 10 11 11 11 11 11 11 11 12 12 13 14 16 17 19 20 21 21 22 22 23 23 23 22 22 22 22 23 23 24 24 24 24 24 24 24 23 23 22 21 21 20 19 18 18 17 17 16 16 16 16 16 15 15 16 16 16 16 17 17 17 18
9 9 9 9 9 9 9 9 10 10 10 10 10 9 9 9 9 9 9 9 9 9 9 10 10 10 11 11 12 12 11 12 13 14 15 16 18 19 20 21 21 22 23 23 23 23 23 22 22 22 22 22 23 23 23 23 23 23 23 22 22 22 21 21 20 19 19 18 17 17 17 16 16 16 16 16 16 16 16 17 17 17 18 18 18 18
10 10 10 10 10 10 10 10 11 11 11 10 9 8 7 8 8 9 9 9 9 9 9 10 11 11 11 12 12 13 13 14 15 16 17 18 19 20 21 21 22 22 23 23 23 23 22 21 21 21 21 21 21 21 22 22 22 22 21 21 21 21 20 20 19 19 18 18 17 17 17 17 17 17 16 16 17 17 17 17 18 18 18 19 19 19
10 10 10 10 10 10 10 10 10 10 9 9 9 8 8 8 8 8 9 9 9 10 10 11 12 12 13 13 14 15 16 17 17 18 19 19 20 21 21 22 22 22 22 22 22 21 20 19 19 20 20 20 20 20 20 20 20 20 20 20 20 20 20 19 19 19 18 18 18 17 17 17 17 17 17 17 17 18 18 18 19 19 19 19 19 19
10 10 9 9 9 9 9 9 8 8 8 8 9 9 9 9 9 9 9 10 11 11 12 12 13 14 15 15 16 17 17 18 19 20 20 21 21 21 22 22 22 22 21 21 20 19 18 18 19 20 20 20 20 20 20 20 20 20 20 20 20 19 19 19 19 19 18 18 18 18 18 18 18 18 18 18 18 18 19 19 19 20 20 20 20 20
10 10 9 8 8 7 8 8 7 7 8 9 9 9 9 10 10 10 11 12 13 13 14 14 15 16 16 17 18 18 19 19 20 21 21 22 21 21 22 22 22 21 20 19 18 17 17 18 19 20 20 20 20 20 20 20 20 20 20 20 19 19 19 19 19 19 19 19 19 19 18 18 19 19 18 18 19 19 20 20 20 20 21 21 21 21
9 8 7 7 6 7 7 7 7 8 8 9 9 10 10 11 12 12 13 14 15 15 16 16 17 18 17 17 18 19 20 20 21 22 23 23 23 22 22 22 22 21 19 17 16 16 17 18 19 20 20 20 20 20 20 20 20 20 20 19 19 19 19 19 19 19 19 19 19 19 19 19 19 19 19 19 20 20 21 21 21 21 22 22 22 22
8 7 7 6 6 7 7 7 8 8 9 10 10 11 12 13 13 14 15 15 16 16 17 18 19 19 20 20 20 21 21 22 23 24 25 25 24 22 21 21 20 19 18 16 16 16 17 18 19 19 20 20 20 20 20 20 20 20 19 19 19 19 19 19 19 19 19 19 19 19 20 20 20 20 20 21 21 21 22 22 22 22 22 23 23 23
7 7 7 7 7 8 8 8 9 9 10 11 11 12 13 13 14 15 16 16 17 17 18 19 20 21 22 22 23 24 24 24 24 25 26 26 24 22 20 18 17 17 16 15 15 15 17 18 18 19 19 20 20 20 20 20 20 19 19 19 19 19 19 19 19 19 20 20 20 20 20 20 21 21 22 22 22 23 23 23 23 23 23 23 24 24
8 8 7 7 8 8 9 10 10 10 11 12 12 13 14 15 15 16 16 17 18 19 19 20 21 22 23 24 25 25 26 25 25 26 26 26 24 21 18 16 15 14 14 13 14 15 16 17 18 18 18 19 19 19 19 19 19 19 19 19 19 19 19 19 20 20 20 20 20 21 21 21 22 22 22 23 23 24 24 24 24 24 24 25 25 25
10 10 10 10 10 10 11 11 12 12 12 13 14 15 16 16 17 18 18 19 20 20 21 22 22 23 24 25 26 26 26 26 26 26 26 25 23 19 16 14 13 13 12 12 13 14 15 16 17 17 17 18 18 19 19 19 19 19 19 19 19 19 19 20 20 20 20 21 21 21 22 22 22 23 23 24 24 25 25 25 25 26 26 26 26 26
12 12 13 13 12 12 13 14 14 14 14 15 15 16 17 18 18 19 20 20 21 22 22 23 24 24 25 26 26 26 26 25 25 25 25 25 22 18 15 13 13 13 12 12 12 13 15 15 15 16 16 17 18 18 18 19 19 19 19 19 19 19 19 20 20 20 21 21 22 22 22 23 23 24 24 25 25 26 26 26 26 26 26 26 26 26
14 14 15 14 14 14 14 14 15 15 16 15 16 17 18 18 19 19 20 21 22 22 23 24 24 25 25 26 26 26 25 24 22 22 22 22 20 17 14 13 13 14 13 13 13 14 14 14 14 14 15 16 17 17 18 18 18 18 18 19 19 19 20 20 20 21 21 22 22 22 23 23 24 25 25 25 26 26 26 26 26 26 26 26 26 26
15 15 15 15 15 14 14 15 15 15 15 16 16 17 18 19 19 20 21 21 22 22 23 24 24 24 25 25 24 23 22 20 19 18 18 19 18 17 15 14 14 14 14 13 13 13 13 13 13 13 14 15 16 16 17 17 17 18 18 18 18 19 19 19 20 20 20 21 21 22 23 23 24 24 25 25 25 25 25 26 26 26 26 26 26 26
15 15 16 16 16 15 15 15 14 14 14 15 16 16 17 18 18 19 20 21 21 22 22 22 23 23 23 23 22 21 18 16 15 15 16 17 17 16 14 14 14 14 14 13 13 13 13 12 12 13 14 15 15 15 16 16 16 16 17 17 17 17 18 18 18 19 19 20 21 21 22 23 23 24 24 24 24 25 25 25 25 26 26 26 26 26
17 17 17 17 17 16 16 16 15 15 15 15 16 16 16 17 18 19 19 20 20 20 21 21 22 23 23 22 21 20 17 14 13 13 14 15 16 15 14 14 14 14 14 14 13 13 13 12 12 12 13 14 14 14 14 14 15 15 15 15 15 15 16 16 17 18 19 20 20 21 22 22 23 23 23 23 24 24 24 25 25 25 25 25 25 25
19 19 19 18 18 18 18 18 18 17 17 17 17 17 17 18 19 20 20 20 20 20 20 21 22 23 23 22 21 19 17 14 12 12 12 14 15 15 14 13 14 15 15 14 14 13 13 13 13 12 12 13 12 12 12 12 12 12 12 13 13 14 14 15 17 18 19 19 20 21 21 21 22 22 22 23 23 24 24 24 24 25 25 25 25 25
19 20 20 20 19 19 19 18 18 18 18 18 17 18 19 20 21 21 22 21 21 21 21 22 22 23 23 22 21 18 16 14 12 11 12 13 14 14 14 14 15 15 16 16 15 14 14 13 13 13 12 12 11 11 10 10 10 11 11 12 13 14 15 16 17 18 19 19 20 20 20 20 21 21 22 22 23 23 23 24 24 24 25 25 25 25
19 19 19 19 19 19 19 19 19 20 20 19 19 19 20 20 21 22 22 22 22 22 22 22 22 22 21 21 20 18 16 14 12 11 11 12 14 15 15 15 16 16 17 17 16 15 14 13 13 12 11 11 10 9 10 10 10 11 12 13 14 15 16 16 17 18 18 18 19 19 19 20 20 21 22 22 23 23 23 24 24 25 25 26 26 25
17 18 18 18 18 19 19 20 21 21 21 21 20 20 20 20 20 21 21 21 21 21 21 21 21 20 20 20 19 18 16 12 10 10 12 13 15 16 16 16 16 17 17 18 18 17 16 13 12 11 11 10 10 10 10 11 12 13 14 14 15 16 16 16 17 17 17 18 18 19 19 20 20 21 22 22 23 23 23 24 24 25 26 26 26 26
15 16 16 16 17 18 19 20 21 22 22 21 21 20 19 19 19 19 19 19 19 19 19 20 19 19 19 18 18 18 17 12 10 11 13 15 16 17 17 17 17 17 17 18 19 19 19 16 12 11 11 11 11 12 12 13 14 15 15 15 15 15 15 16 16 16 17 17 18 18 19 19 20 21 22 22 23 23 23 24 24 25 26 27 27 27
13 13 14 14 15 16 18 19 20 20 20 20 20 19 19 18 18 17 17 17 17 17 17 18 18 18 18 18 18 18 18 15 13 13 14 16 17 18 18 18 18 18 17 18 18 18 19 20 18 15 14 14 14 14 14 14 14 14 14 14 14 14 14 15 15 16 16 16 17 18 18 19 20 20 21 22 22 23 23 24 24 25 26 27 28 28
13 13 14 14 15 16 17 18 18 19 19 19 18 18 18 17 17 17 16 16 16 16 16 16 17 17 18 18 18 18 18 16 15 14 15 16 18 18 18 19 19 19 19 19 19 19 19 22 22 20 17 16 15 15 14 13 13 13 13 13 13 13 14 14 15 16 16 16 17 17 18 18 19 20 21 21 22 22 23 23 24 25 26 27 27 28
14 14 14 14 15 15 16 17 17 17 17 17 17 17 16 16 16 16 16 16 16 16 16 16 17 17 18 18 19 19 18 16 15 15 16 17 18 19 19 20 20 20 21 21 21 21 22 22 22 22 21 18 17 16 15 15 14 14 14 14 14 15 15 15 16 16 16 17 17 17 17 18 19 19 20 20 21 22 22 23 23 24 25 26 27 28
14 14 14 14 15 15 15 16 16 16 16 16 16 15 15 15 15 16 16 16 17 17 17 17 17 17 18 18 19 19 19 16 15 15 16 18 19 20 20 21 21 21 22 22 22 23 24 23 22 22 23 22 19 17 17 16 16 16 16 16 16 16 16 16 16 16 17 17 17 17 17 18 18 19 19 20 20 21 21 22 22 23 24 25 26 27
15 15 14 14 15 15 15 15 15 15 15 15 15 15 15 15 15 16 16 17 18 18 18 17 17 17 17 17 18 19 18 17 16 16 17 18 19 20 21 21 21 21 22 23 23 24 25 25 24 22 23 24 23 20 18 17 17 17 17 17 17 17 16 16 16 16 17 17 17 17 17 17 18 18 19 19 20 20 21 21 22 22 23 24 26 27
16 15 15 14 15 15 15 14 14 14 13 14 14 14 15 15 15 16 16 17 17 17 17 16 16 16 16 17 17 18 18 17 17 17 18 19 19 21 22 22 21 21 22 24 24 24 25 26 26 24 23 23 23 22 20 18 18 18 18 18 18 18 17 17 17 17 17 17 17 17 17 18 18 18 19 19 20 20 21 21 22 22 23 24 25 26
16 15 14 14 14 14 14 13 13 13 13 13 13 14 14 15 15 15 15 16 15 15 15 14 15 15 16 17 17 18 18 18 18 18 19 19 20 21 22 22 22 21 22 23 24 24 25 26 26 26 25 23 22 21 20 20 19 19 19 19 19 19 18 18 18 18 18 18 18 18 18 18 19 19 20 20 20 21 21 21 22 23 23 24 25 26
15 14 13 13 13 13 13 13 12 12 12 12 13 13 14 13 13 13 14 14 14 14 14 14 14 15 16 17 18 18 19 19 19 20 20 20 21 21 22 22 22 22 21 22 22 23 23 24 24 24 24 24 23 21 20 20 19 20 20 20 19 19 19 19 19 19 19 19 20 20 20 20 20 20 20 20 21 21 21 22 22 23 24 24 26 26
13 12 12 12 12 12 12 12 12 12 12 12 12 12 12 12 12 12 12 13 13 13 14 14 15 16 17 17 18 19 19 20 20 20 21 21 21 21 22 22 22 22 21 21 21 22 22 22 22 22 22 22 22 22 21 20 19 20 20 21 21 20 20 20 20 20 21 21 21 21 21 21 21 21 21 21 21 21 21 22 23 23 24 25 25 26
12 11 11 11 11 11 12 11 11 11 11 11 11 11 11 11 11 11 12 12 13 14 14 15 16 17 18 18 19 19 19 19 20 20 20 20 20 21 21 21 21 21 20 20 20 20 19 19 20 20 20 20 21 22 22 21 20 20 21 22 22 22 22 21 21 22 22 22 22 22 22 22 22 21 21 21 21 22 22 22 23 24 24 25 26 26
11 11 11 11 11 11 11 11 11 10 10 10 10 10 10 10 11 11 12 12 13 14 15 16 17 17 18 18 18 18 18 18 18 18 18 19 19 19 19 19 19 18 18 18 18 18 17 17 18 18 18 19 20 22 23 22 22 21 22 23 24 24 24 23 22 22 22 22 22 22 22 21 21 21 22 22 22 22 23 23 23 24 24 25 26 26
11 10 10 10 10 10 10 10 10 10 10 10 10 9 10 10 11 12 13 13 14 15 16 17 17 18 18 18 17 16 16 16 16 16 16 16 16 16 16 16 16 16 16 16 16 16 16 16 17 17 18 18 20 22 24 24 24 23 23 24 25 26 27 26 24 23 22 21 21 20 20 20 21 21 22 23 23 23 23 23 24 24 25 25 26 26
10 10 10 10 10 9 9 9 9 9 9 9 9 10 10 11 12 13 14 14 15 15 16 16 17 17 17 16 16 15 14 14 13 13 13 13 13 14 14 14 14 14 14 14 14 15 16 16 17 17 17 18 20 22 24 25 25 25 25 25 26 26 27 27 25 23 22 20 20 19 19 19 20 21 22 23 23 23 23 24 24 24 25 25 25 25
10 10 9 9 9 9 8 8 8 8 8 9 9 10 11 12 13 13 14 14 14 14 15 15 15 15 14 14 14 13 13 12 12 12 11 11 12 12 12 12 12 13 13 13 13 14 14 16 16 17 17 19 21 23 24 26 27 27 27 26 26 26 26 25 24 23 22 21 20 19 18 19 20 21 22 23 23 24 24 24 24 25 25 25 25 25
10 9 9 9 9 8 8 8 8 8 8 9 10 11 12 12 13 13 13 13 13 13 13 13 13 13 13 13 12 12 12 12 11 11 10 10 10 10 10 10 11 11 11 12 13 13 14 15 16 17 19 20 23 24 25 26 27 27 27 26 25 25 25 24 23 23 22 22 21 20 19 19 20 22 23 24 24 25 25 25 25 26 26 26 26 26
10 9 9 9 8 8 8 8 8 8 9 10 10 11 12 12 12 12 12 11 11 11 11 12 12 12 12 12 11 11 11 11 10 10 9 9 8 8 8 9 9 10 10 11 13 14 15 16 17 18 20 22 24 26 26 26 26 26 26 25 25 25 25 25 24 24 23 23 22 21 21 21 22 24 25 26 27 27 27 27 27 27 27 27 27 27
10 9 9 9 8 8 8 8 8 9 10 10 11 11 11 11 11 10 10 10 10 11 11 11 11 11 11 11 11 11 11 11 10 10 9 9 8 9 9 9 10 10 12 13 14 16 17 18 19 19 20 22 24 25 26 25 24 24 24 24 24 25 26 26 26 25 24 23 23 23 23 23 25 26 27 29 30 30 30 29 29 28 28 28 28 27
10 10 9 9 9 9 9 9 9 10 10 11 11 10 10 10 10 10 10 10 10 11 11 12 12 12 12 12 12 11 11 11 11 11 10 10 11 11 11 12 13 13 15 16 17 18 19 21 21 22 22 22 22 24 24 24 23 23 23 24 25 26 27 27 26 26 25 24 24 24 25 26 27 28 28 30 32 32 32 32 31 30 29 28 28 28
10 10 10 9 9 9 9 9 10 10 11 11 11 10 10 9 10 10 10 10 11 11 12 13 13 13 14 14 14 13 13 13 13 12 12 12 13 13 14 14 15 16 17 18 19 20 22 23 24 24 23 22 21 22 22 23 23 24 24 25 26 26 27 27 27 26 26 26 26 26 27 28 29 29 29 30 32 33 34 34 33 31 30 29 29 28
10 10 10 10 10 10 10 10 10 10 10 10 10 10 10 10 10 11 11 11 11 12 13 13 14 15 15 16 16 16 16 15 15 15 14 14 14 15 15 16 17 17 18 19 20 21 23 24 25 25 24 22 20 20 20 22 23 24 26 26 26 26 26 27 27 27 27 27 28 29 30 30 30 30 30 30 31 32 34 35 35 33 31 30 29 29
Wind_Direction
284 288 292 295 299 303 306 307 310 312 310 308 300 289 281 277 274 271 268 265 264 265 266 268 269 270 271 272 271 269 267 264 262 259 256 255 256 258 261 265 269 274 278 281 283 283 283 282 281 280 279 278 278 277 277 276 276 275 274 272 268 266 264 261 260 259 258 257 257 255 253 251 250 249 248 249 249 249 248 249 249 248 248 249 250 250
285 288 292 296 300 305 307 308 310 312 311 308 302 292 284 278 275 272 270 268 268 269 270 272 273 273 272 270 268 266 263 261 257 254 252 253 256 260 265 270 274 277 278 277 276 274 273 273 272 272 272 272 273 273 274 275 275 274 272 270 268 266 264 261 260 258 257 256 254 252 251 251 250 251 252 253 254 255 256 256 257 257 257 257 258 258
285 289 292 296 300 304 306 308 309 310 308 306 300 292 284 279 276 274 272 271 272 273 274 275 275 273 270 267 264 262 260 256 253 251 252 255 260 265 270 273 275 274 273 271 270 269 269 269 268 268 268 268 268 267 268 269 270 269 268 267 266 265 264 263 262 261 260 259 258 256 256 255 255 256 257 258 260 261 261 261 261 261 261 261 261 262
287 290 293 296 299 301 303 306 307 307 305 301 296 290 283 278 275 274 273 273 273 274 274 272 270 268 265 262 260 258 256 253 252 253 256 261 266 270 272 272 271 270 269 268 268 268 268 268 269 269 268 267 266 265 264 264 265 265 265 265 265 265 266 267 267 267 267 266 265 264 263 262 262 262 263 263 264 264 264 263 263 262 262 261 261 261
291 292 294 296 298 299 300 302 303 302 300 296 291 285 280 276 273 272 271 271 270 270 268 266 264 262 260 258 257 255 255 254 256 258 263 267 269 271 271 270 269 268 268 268 269 269 270 270 270 270 270 269 268 266 265 265 265 265 266 266 267 268 268 268 266 265 264 264 265 266 267 267 267 267 267 266 266 265 264 262 260 259 259 259 259 259
292 294 294 295 296 297 299 299 298 298 296 292 287 282 277 273 270 269 268 266 265 264 262 260 259 258 257 256 256 256 258 260 263 265 268 269 270 270 269 269 268 268 268 268 269 270 271 272 272 272 271 270 269 268 268 267 267 267 267 267 265 263 261 259 258 256 256 257 259 262 264 265 265 265 264 263 262 261 259 257 256 254 254 254 255 257
292 293 294 293 293 294 296 295 293 292 291 288 283 279 275 272 270 268 266 264 261 259 257 256 256 257 257 257 259 261 264 266 268 269 269 269 269 268 268 267 267 267 267 268 269 270 271 272 272 271 270 269 267 265 264 263 262 260 259 257 256 254 254 254 254 255 256 258 260 262 263 264 264 263 262 260 259 258 256 254 252 252 252 252 253 254
293 294 295 295 295 295 294 293 290 287 286 283 279 276 273 271 267 264 262 259 257 256 255 256 258 260 261 262 264 265 267 267 268 268 268 267 266 266 266 266 267 268 269 270 270 271 272 271 269 266 262 258 256 254 252 249 248 247 247 248 249 251 253 255 257 259 261 263 264 266 267 267 267 266 264 262 260 258 256 255 254 253 253 253 254 254
296 298 298 298 298 300 299 293 287 283 281 277 273 270 267 264 262 259 258 257 257 258 259 261 262 264 264 265 266 267 267 267 267 267 266 266 266 267 268 269 270 272 272 273 273 273 273 271 267 262 257 252 250 248 246 244 243 244 246 248 251 254 257 260 263 265 266 267 268 269 269 269 268 266 264 263 261 259 257 257 256 256 257 257 257 257
302 302 301 300 299 297 294 285 281 280 278 274 271 269 267 264 262 262 261 261 262 263 263 262 262 263 265 265 266 267 268 269 268 268 268 269 270 272 274 275 276 277 277 277 277 276 275 273 270 265 261 256 253 251 249 248 248 250 252 254 257 260 263 266 268 269 270 270 270 269 268 267 266 264 263 261 260 259 259 258 258 259 260 260 261 261
308 306 304 301 299 296 289 280 277 278 278 276 275 274 273 271 268 267 267 266 266 266 265 264 264 265 268 271 271 271 272 271 270 270 271 273 276 278 280 281 282 282 282 281 280 278 277 275 272 269 265 261 258 256 255 255 256 257 259 262 264 266 268 270 271 272 271 271 270 268 266 265 263 262 261 261 261 261 261 261 261 261 262 262 263 263
309 307 304 300 297 293 288 283 281 280 279 277 277 277 277 276 272 270 269 269 269 269 269 270 270 271 274 277 279 278 276 274 272 273 274 276 278 281 282 284 284 284 284 283 281 280 278 275 272 268 265 262 260 259 258 259 261 262 264 266 268 270 271 272 272 272 271 270 268 266 264 263 261 261 261 261 262 262 263 263 263 263 263 264 264 264
305 303 300 296 292 288 284 282 281 281 281 280 279 278 279 278 276 274 272 272 272 274 276 277 279 279 279 280 282 281 279 277 276 276 277 279 281 283 284 285 285 285 284 283 281 279 276 273 269 266 263 261 259 259 260 261 263 265 267 268 270 271 271 271 271 270 269 267 266 264 262 261 261 261 261 261 262 263 264 264 264 265 265 265 265 265
301 298 295 291 287 283 281 280 280 281 283 285 285 283 280 279 279 280 280 280 280 280 281 282 284 284 284 283 283 282 281 280 280 280 280 281 283 284 285 286 286 285 283 281 279 276 272 269 266 263 261 261 260 261 262 263 265 266 268 269 270 270 269 269 268 267 266 264 263 261 260 260 260 260 261 261 262 263 264 265 266 266 267 267 268 268
298 296 293 287 283 281 280 279 279 280 282 286 288 287 286 285 284 284 285 286 285 285 285 284 285 286 287 285 284 284 283 283 283 284 284 284 284 286 287 287 286 285 282 279 275 271 266 263 262 261 262 262 263 263 264 266 266 267 268 268 268 267 267 266 265 263 262 261 260 259 258 258 258 259 260 261 263 264 265 266 266 267 268 269 269 270
299 296 289 285 281 279 279 278 278 279 282 285 286 287 289 288 287 286 286 286 286 287 287 286 286 286 286 285 285 285 285 286 286 287 287 286 286 287 289 289 287 284 280 275 270 265 261 259 259 261 262 263 265 266 266 267 267 268 267 266 266 264 263 262 261 260 259 258 258 257 257 257 258 258 260 261 262 263 264 265 266 267 268 269 269 270
299 295 288 280 275 274 276 276 275 275 278 280 281 281 282 283 284 284 284 284 286 287 287 287 287 287 287 286 286 286 287 288 289 289 289 288 288 290 291 290 287 283 277 270 264 259 257 257 259 261 263 265 266 267 267 268 268 267 266 265 264 262 261 260 259 258 257 257 256 256 257 257 258 259 260 261 262 263 265 266 267 268 269 269 270 271
295 292 289 281 277 276 276 276 275 275 276 277 278 278 279 279 280 282 283 284 285 285 286 286 286 286 287 286 287 288 289 289 290 290 290 289 289 291 292 290 286 280 274 267 261 257 256 257 259 262 264 266 267 268 268 268 268 267 266 264 263 261 260 259 258 257 257 256 256 256 256 257 259 260 262 263 265 266 267 268 269 269 270 270 271 272
290 288 286 285 283 283 282 281 281 281 281 281 281 282 282 281 281 282 282 282 283 283 284 285 285 285 286 287 287 288 289 290 291 291 291 290 290 291 293 290 284 277 270 264 259 256 256 258 260 262 264 265 266 267 268 268 267 266 265 264 262 261 260 259 258 257 257 257 257 257 258 259 260 262 264 265 266 267 268 268 269 269 270 271 271 273
286 283 280 281 282 283 282 282 283 283 284 284 285 285 284 283 282 282 281 282 282 282 282 282 283 284 284 285 287 288 290 291 292 292 291 291 291 293 294 290 282 273 267 262 258 257 257 258 260 262 263 265 265 266 266 266 266 265 264 263 262 261 260 259 258 258 258 258 259 260 261 262 263 264 265 266 266 267 267 267 268 269 270 271 272 273
283 280 279 277 279 280 280 282 281 281 281 281 282 282 281 281 280 280 280 280 280 280 280 281 281 282 283 284 286 287 289 291 293 293 292 291 291 292 293 288 280 272 265 261 258 257 258 259 260 262 262 263 263 263 263 263 263 262 262 261 261 260 259 259 259 259 259 260 260 261 262 263 263 264 264 264 265 265 266 266 268 269 270 272 273 274
288 286 285 285 286 286 286 288 288 286 284 282 281 279 278 278 278 278 277 278 278 278 279 280 280 281 282 283 285 287 289 291 293 293 293 291 291 291 290 285 279 273 268 264 261 259 259 260 261 261 261 261 260 260 260 260 260 260 259 259 259 259 258 258 259 259 260 261 261 262 262 263 263 263 263 264 264 265 266 268 269 271 272 274 275 276
290 290 291 292 292 291 290 290 290 290 288 286 283 281 280 279 278 278 277 277 277 278 278 279 280 282 283 284 286 288 290 293 293 293 291 289 288 288 288 284 280 276 273 269 266 263 261 261 261 261 260 259 259 258 258 258 257 257 257 257 257 257 257 258 258 259 260 260 261 261 262 262 263 263 264 265 266 267 269 271 272 274 275 275 276 276
292 291 291 292 291 290 289 287 287 288 287 286 284 282 282 281 281 280 280 279 280 280 281 282 283 284 284 286 287 290 292 294 293 291 288 286 286 287 287 286 283 279 276 273 270 267 264 261 260 261 260 260 259 259 258 257 257 256 256 256 256 256 257 257 258 258 259 259 260 261 261 262 263 264 265 267 269 270 272 273 274 275 275 275 276 276
292 290 290 290 290 288 287 285 283 282 281 281 281 282 282 283 282 282 282 282 283 284 286 287 288 288 289 292 293 294 296 296 293 289 287 287 286 286 288 287 285 282 278 275 272 270 267 264 262 262 263 262 261 260 259 258 257 256 255 255 255 255 256 256 257 257 258 259 260 261 262 263 265 266 267 269 270 272 273 273 274 274 274 275 275 275
288 287 287 287 287 286 285 284 282 279 279 279 281 282 283 284 284 284 284 284 285 287 289 290 291 292 295 298 299 300 301 299 294 289 288 288 287 287 288 288 286 284 280 277 276 274 272 268 266 266 266 265 263 261 259 257 255 254 253 253 253 253 254 255 257 258 259 260 261 262 263 265 266 267 268 270 271 272 272 273 273 273 274 274 274 274
285 285 285 285 285 286 286 287 286 283 281 280 280 281 281 282 282 283 283 284 286 288 289 289 291 293 297 298 300 301 302 300 297 293 289 288 288 288 290 289 288 287 284 281 280 279 277 275 273 272 269 266 263 259 255 252 250 249 248 249 250 252 254 256 258 259 261 262 263 263 264 265 266 267 269 270 270 271 272 272 273 273 273 274 274 274
284 285 286 287 287 287 287 287 285 284 282 280 278 277 277 278 279 280 281 285 288 289 289 290 291 293 296 299 301 301 300 301 300 297 291 289 289 291 292 292 291 291 289 286 283 281 281 280 278 275 271 265 260 254 249 245 243 244 246 249 252 255 257 259 260 262 262 263 264 264 265 266 267 268 269 269 270 271 271 272 273 273 273 274 275 275
283 285 287 288 288 288 287 286 285 284 283 282 280 278 276 277 279 280 283 286 288 288 287 289 291 293 296 299 300 300 299 301 302 298 294 292 291 291 292 293 294 294 294 292 287 282 282 283 281 276 270 262 254 247 243 243 245 248 252 256 259 261 263 264 265 265 265 265 265 266 266 266 267 268 268 269 270 270 271 272 272 273 273 274 275 276
281 283 284 284 285 285 285 284 284 284 284 285 284 283 281 281 281 282 284 285 284 284 285 287 290 293 296 298 298 297 298 301 300 297 295 293 292 292 292 293 295 296 298 299 296 291 287 283 279 275 270 263 257 253 252 255 258 262 264 266 268 269 270 270 270 269 268 268 267 267 266 266 267 267 267 268 268 269 270 270 271 272 273 274 276 277
278 278 278 279 280 280 280 281 282 284 285 286 287 286 285 285 284 283 283 283 283 283 285 287 289 291 293 294 293 293 295 297 296 295 295 293 292 293 294 295 296 297 300 303 304 302 297 290 281 274 272 269 267 267 268 270 272 273 273 273 274 274 274 273 272 271 270 268 267 267 266 266 266 266 267 267 267 268 268 269 270 271 272 274 275 277
282 280 279 279 279 280 280 281 282 283 285 286 287 287 287 287 286 285 285 284 283 284 284 285 287 288 289 289 287 287 290 292 294 295 295 294 294 294 295 296 297 298 300 302 303 302 300 297 291 283 279 277 275 274 274 276 277 278 278 278 277 277 278 277 276 275 274 272 270 269 269 268 268 268 267 267 267 267 267 268 269 270 272 274 276 277
294 291 288 286 284 284 284 284 284 285 286 287 287 287 287 288 288 287 287 285 284 282 282 282 282 283 283 284 284 285 288 290 294 296 296 294 294 294 295 296 297 298 299 300 300 299 297 297 295 292 289 287 285 283 283 284 285 286 287 288 288 288 288 288 287 285 283 280 278 276 275 274 272 271 270 269 268 268 268 268 269 270 272 273 275 277
302 298 295 292 290 288 287 286 286 286 287 287 287 287 286 287 287 286 286 284 282 280 278 276 275 276 278 280 282 283 286 289 292 293 292 291 290 291 293 295 296 298 299 300 300 299 298 297 297 298 297 294 293 294 297 299 300 300 301 301 300 300 299 298 297 294 292 289 287 284 281 278 276 274 273 271 270 269 269 268 269 269 271 272 273 275
303 300 297 294 291 288 287 286 286 286 286 286 286 285 285 284 284 284 283 282 281 280 279 277 276 275 275 276 279 282 284 286 288 288 288 287 287 289 291 292 294 296 298 298 299 299 299 298 299 300 300 299 298 299 303 306 308 308 308 308 307 306 305 304 302 299 296 293 291 288 285 282 279 277 274 273 271 270 269 268 268 268 269 270 271 272
303 300 298 294 291 288 286 285 284 285 285 285 284 284 283 283 282 281 281 281 281 282 282 283 282 280 278 277 278 280 283 286 286 285 285 286 287 288 289 290 292 294 295 296 297 298 299 299 299 299 299 300 301 303 306 308 309 309 309 309 308 308 308 306 304 301 298 296 293 290 287 284 281 279 276 274 272 271 270 268 267 267 267 267 267 268
302 300 297 294 291 288 286 285 284 284 284 284 283 282 282 281 281 281 281 281 282 283 284 283 283 281 280 280 281 282 285 288 288 286 286 287 288 287 287 289 290 292 292 293 294 296 297 297 298 298 298 299 301 304 309 310 310 309 310 310 309 309 309 308 306 304 301 299 296 294 291 288 285 282 280 278 276 274 272 270 269 267 266 266 266 266
300 298 296 293 290 288 286 285 283 283 283 282 281 281 280 280 281 281 280 280 281 282 283 282 281 280 280 281 282 285 287 289 289 289 289 289 288 288 288 289 289 290 290 291 292 293 293 294 294 296 297 298 300 304 309 310 311 311 311 310 309 309 309 309 308 307 305 303 300 297 294 291 289 286 284 282 279 277 275 272 270 268 267 266 265 265
298 297 295 293 290 288 286 285 284 283 282 281 280 280 280 281 280 279 279 279 280 281 281 281 281 281 282 283 285 287 289 290 291 292 291 290 289 288 288 288 289 289 289 289 289 289 289 289 290 291 294 298 301 305 307 308 310 310 309 307 306 306 308 309 309 308 306 304 301 299 296 293 291 289 287 284 282 279 276 273 271 269 267 267 266 266
298 296 294 292 289 287 286 285 285 284 283 281 280 280 281 281 280 279 278 278 279 281 282 282 283 284 285 287 288 290 291 292 292 291 290 289 288 287 287 286 287 288 288 287 286 285 285 286 287 290 294 298 302 305 307 308 309 309 309 307 307 307 308 308 308 307 305 303 301 299 297 295 293 290 288 285 283 280 277 275 273 271 270 269 269 269
297 295 293 290 288 287 287 287 286 285 284 283 281 281 281 281 281 281 280 281 282 283 284 285 286 287 288 289 290 290 291 291 290 289 288 287 286 286 285 284 285 285 285 284 284 284 284 285 288 292 296 300 303 305 306 307 308 310 310 309 308 307 305 305 305 305 304 302 301 299 297 295 293 291 289 286 283 281 279 278 276 275 273 273 273 273
297 295 293 291 289 288 288 287 287 286 285 284 284 283 284 284 284 284 285 286 287 287 287 288 289 290 290 289 289 289 289 289 287 286 285 285 284 283 283 283 283 283 283 284 284 285 286 288 291 295 299 303 304 305 305 306 308 309 309 309 308 306 303 302 302 303 303 301 299 298 297 295 293 291 288 286 284 282 280 279 279 278 277 276 276 276
297 295 293 292 290 289 288 286 285 285 285 285 286 287 288 288 289 290 291 292 292 293 293 293 294 294 293 292 291 291 291 290 289 287 286 285 283 283 282 282 282 283 283 285 286 288 291 293 295 297 301 304 304 304 303 306 307 309 309 309 309 308 306 304 304 303 302 300 298 297 296 295 293 291 288 286 285 284 283 282 281 280 280 279 279 278
295 294 293 291 290 287 285 284 283 283 283 285 287 289 290 291 293 294 295 296 296 296 297 297 297 297 296 297 298 297 297 296 295 293 291 288 286 285 284 283 283 283 285 287 289 291 295 296 298 300 303 303 302 301 302 305 307 308 309 309 309 308 306 306 306 305 303 301 299 298 298 297 295 292 289 288 286 286 285 285 284 283 282 281 282 282
293 291 290 288 286 285 283 282 282 282 284 287 289 290 291 294 295 296 297 298 299 300 301 301 302 303 305 305 305 305 304 303 302 299 296 293 291 288 287 287 286 287 288 290 292 294 295 297 299 302 303 302 300 300 301 304 307 308 309 309 308 307 306 306 307 308 308 306 304 303 303 301 299 296 293 290 289 289 289 288 288 287 286 286 287 288
291 289 287 284 282 282 282 283 283 284 286 289 291 292 294 296 297 298 299 301 303 304 306 307 310 313 315 314 312 310 308 306 305 303 300 297 294 291 290 290 290 290 290 292 293 295 296 297 300 302 303 302 301 301 303 305 307 309 309 310 309 308 307 308 309 311 311 310 309 308 307 305 302 300 298 297 295 293 293 293 293 293 293 293 293 293
289 288 285 283 281 281 281 282 284 286 289 291 292 294 296 298 299 300 301 304 308 311 313 316 320 323 322 321 318 315 312 309 306 305 303 301 298 295 292 292 292 292 292 293 295 296 298 300 302 303 303 302 302 303 305 306 307 309 310 311 310 309 309 309 311 312 313 312 312 312 311 310 307 306 305 304 302 300 299 298 298 298 298 298 298 298
287 286 284 282 281 281 281 282 285 288 291 293 294 296 297 299 301 303 306 309 313 317 322 328 331 331 328 326 323 320 317 313 310 308 309 308 306 304 302 301 300 299 299 300 301 302 303 304 305 305 304 303 303 304 307 309 310 310 311 311 311 310 311 311 312 314 314 314 314 314 314 313 311 310 309 308 306 304 302 302 301 300 300 300 300 300
282 282 281 281 281 281 281 283 286 290 292 294 295 296 298 300 303 307 310 313 317 322 328 333 335 333 331 331 329 326 322 317 314 312 312 312 313 312 311 310 309 308 307 307 307 308 309 309 309 308 307 307 306 307 310 312 313 312 312 311 311 311 312 312 314 315 316 316 315 315 313 312 311 310 308 307 306 305 304 303 302 301 300 301 301 301
277 277 278 278 279 280 281 284 288 291 293 294 294 294 296 299 303 306 309 313 318 324 330 334 335 333 331 331 332 330 326 322 318 316 316 316 315 315 314 313 312 312 312 311 311 312 312 311 311 310 309 309 309 309 310 312 314 314 312 311 311 311 312 312 314 315 316 316 315 313 311 310 309 308 306 304 303 303 304 303 302 301 300 300 300 300
272 272 273 274 275 277 280 283 287 290 292 292 292 291 292 295 299 303 307 313 320 326 330 332 332 331 328 329 330 329 326 324 321 319 318 316 315 313 312 311 311 312 313 313 313 313 313 312 311 309 309 309 310 311 310 311 312 312 311 310 310 311 311 311 313 315 315 314 312 310 308 307 306 304 303 300 299 299 300 301 301 300 299 299 298 299
Height
1487 1486 1487 1487 1487 1487 1487 1487 1487 1488 1488 1488 1488 1488 1488 1486 1486 1486 1487 1488 1488 1489 1490 1491 1492 1492 1492 1492 1492 1491 1491 1492 1492 1492 1492 1492 1492 1492 1492 1492 1492 1492 1493 1493 1493 1493 1493 1493 1493 1493 1493 1493 1493 1493 1493 1493 1493 1493 1493 1493 1493 1494 1494 1494 1494 1494 1494 1494 1494 1495 1495 1495 1495 1494 1494 1494 1494 1494 1494 1495 1495 1495 1495 1495 1495 1495
1486 1486 1486 1486 1486 1485 1485 1485 1486 1486 1486 1486 1486 1486 1486 1485 1485 1485 1486 1487 1487 1488 1489 1490 1490 1490 1490 1490 1489 1489 1490 1490 1490 1490 1490 1490 1490 1490 1491 1491 1491 1491 1491 1491 1491 1492 1492 1491 1491 1491 1491 1491 1491 1491 1491 1491 1491 1492 1492 1492 1492 1492 1492 1492 1492 1492 1492 1492 1492 1492 1492 1492 1492 1492 1492 1492 1492 1492 1493 1493 1493 1493 1493 1493 1493 1493
1485 1485 1485 1485 1485 1485 1484 1484 1485 1485 1485 1485 1485 1485 1485 1485 1485 1485 1485 1486 1487 1487 1488 1489 1489 1489 1488 1487 1487 1488 1488 1488 1489 1489 1489 1489 1489 1489 1490 1490 1490 1490 1490 1490 1490 1490 1490 1490 1490 1490 1490 1490 1490 1490 1490 1490 1490 1490 1490 1490 1490 1490 1490 1490 1490 1490 1490 1490 1490 1490 1490 1490 1490 1490 1490 1490 1490 1491 1491 1491 1491 1491 1491 1491 1491 1492
1485 1485 1485 1484 1484 1484 1483 1483 1483 1483 1483 1483 1484 1484 1484 1484 1485 1485 1485 1485 1486 1486 1487 1487 1487 1487 1486 1486 1486 1486 1487 1487 1487 1487 1487 1488 1488 1488 1488 1489 1489 1489 1489 1489 1489 1489 1489 1489 1488 1489 1489 1489 1489 1489 1489 1489 1489 1489 1489 1489 1488 1488 1488 1488 1488 1488 1488 1488 1488 1488 1488 1488 1489 1489 1489 1489 1489 1489 1490 1490 1490 1490 1490 1490 1490 1490
1484 1484 1484 1484 1483 1483 1483 1482 1482 1482 1482 1482 1483 1483 1483 1484 1484 1484 1485 1485 1485 1485 1485 1486 1486 1486 1485 1485 1485 1485 1485 1485 1486 1486 1486 1486 1487 1487 1487 1487 1487 1487 1487 1487 1487 1487 1487 1487 1487 1487 1487 1487 1487 1487 1487 1487 1487 1487 1487 1487 1487 1487 1487 1487 1487 1487 1487 1487 1487 1487 1487 1487 1487 1487 1487 1487 1487 1488 1488 1488 1488 1488 1488 1488 1488 1488
1483 1483 1483 1483 1483 1482 1482 1482 1482 1482 1482 1482 1482 1482 1482 1482 1483 1483 1484 1484 1484 1484 1485 1485 1485 1485 1485 1485 1485 1485 1484 1485 1485 1485 1485 1485 1486 1486 1486 1486 1486 1486 1486 1486 1486 1485 1485 1485 1485 1485 1486 1486 1486 1486 1486 1486 1486 1486 1486 1486 1485 1485 1485 1485 1485 1485 1485 1485 1485 1485 1485 1485 1485 1485 1485 1485 1486 1486 1486 1486 1486 1486 1486 1486 1486 1487
1483 1483 1482 1482 1482 1482 1481 1481 1481 1481 1481 1481 1481 1481 1481 1482 1482 1482 1483 1483 1483 1484 1484 1484 1484 1484 1484 1484 1484 1483 1483 1483 1484 1484 1484 1484 1485 1485 1485 1485 1485 1485 1485 1485 1484 1484 1484 1484 1484 1484 1484 1484 1485 1485 1485 1485 1485 1485 1484 1484 1484 1483 1483 1483 1483 1483 1483 1483 1484 1484 1484 1484 1484 1484 1484 1484 1484 1484 1484 1484 1484 1485 1485 1485 1485 1485
1482 1482 1482 1482 1481 1481 1481 1480 1480 1480 1480 1480 1480 1480 1480 1481 1481 1482 1482 1482 1483 1483 1483 1483 1483 1483 1483 1483 1482 1482 1482 1482 1483 1483 1483 1483 1483 1483 1484 1484 1483 1483 1483 1483 1483 1483 1482 1482 1482 1482 1482 1483 1483 1483 1483 1483 1482 1482 1482 1481 1481 1481 1481 1481 1481 1481 1482 1482 1482 1482 1482 1482 1482 1482 1482 1482 1482 1482 1482 1483 1483 1483 1483 1483 1484 1484
1482 1481 1481 1481 1481 1480 1480 1480 1480 1480 1480 1480 1480 1480 1480 1480 1480 1481 1481 1482 1482 1482 1482 1482 1482 1482 1482 1482 1481 1481 1481 1482 1482 1482 1482 1482 1482 1482 1482 1482 1482 1482 1481 1481 1481 1481 1480 1480 1480 1480 1480 1480 1480 1480 1480 1480 1480 1479 1479 1479 1479 1479 1480 1480 1480 1480 1480 1481 1481 1481 1481 1481 1481 1481 1481 1481 1481 1481 1481 1481 1481 1481 1482 1482 1482 1482
1481 1481 1481 1481 1480 1480 1480 1480 1480 1479 1479 1479 1480 1480 1480 1480 1480 1480 1481 1481 1481 1481 1481 1482 1482 1481 1481 1481 1481 1481 1481 1481 1481 1481 1481 1481 1481 1481 1480 1480 1480 1480 1480 1480 1479 1479 1479 1479 1478 1478 1478 1478 1478 1478 1478 1477 1477 1477 1477 1478 1478 1478 1478 1479 1479 1479 1479 1479 1479 1480 1480 1480 1480 1480 1480 1480 1480 1480 1480 1480 1480 1480 1480 1480 1480 1481
1481 1481 1481 1480 1480 1480 1480 1480 1480 1479 1479 1479 1479 1479 1480 1480 1480 1480 1480 1480 1480 1480 1480 1480 1480 1480 1480 1480 1480 1480 1480 1480 1480 1480 1480 1480 1480 1479 1479 1479 1478 1478 1478 1478 1477 1477 1477 1477 1476 1476 1476 1476 1476 1476 1476 1476 1476 1476 1476 1476 1477 1477 1477 1477 1477 1477 1477 1478 1478 1478 1478 1478 1478 1478 1478 1478 1478 1478 1478 1479 1479 1479 1479 1479 1479 1480
1481 1481 1481 1480 1480 1480 1480 1480 1479 1479 1479 1479 1479 1479 1479 1479 1479 1479 1479 1480 1480 1480 1480 1479 1479 1479 1479 1479 1479 1479 1479 1479 1479 1479 1478 1478 1478 1478 1478 1477 1477 1476 1476 1476 1475 1475 1475 1475 1475 1475 1475 1474 1474 1475 1475 1475 1475 1475 1475 1475 1475 1475 1475 1475 1475 1476 1476 1476 1476 1476 1476 1477 1477 1477 1477 1477 1477 1477 1477 1477 1477 1477 1478 1478 1478 1478
1481 1480 1480 1480 1480 1480 1480 1479 1479 1479 1478 1478 1478 1478 1478 1478 1478 1478 1478 1478 1478 1478 1478 1478 1478 1478 1478 1478 1478 1477 1477 1477 1477 1477 1477 1477 1477 1476 1476 1476 1475 1475 1475 1474 1474 1474 1474 1473 1473 1473 1473 1473 1473 1473 1473 1473 1473 1474 1474 1474 1474 1474 1474 1474 1474 1474 1474 1474 1475 1475 1475 1475 1475 1475 1475 1475 1475 1475 1475 1476 1476 1476 1476 1476 1476 1476
1480 1480 1480 1480 1480 1479 1479 1479 1478 1478 1478 1477 1477 1477 1477 1477 1477 1477 1477 1477 1477 1477 1477 1477 1477 1477 1477 1476 1476 1476 1476 1476 1476 1475 1475 1475 1475 1475 1475 1474 1474 1473 1473 1473 1472 1472 1472 1472 1471 1471 1471 1471 1471 1471 1471 1472 1472 1472 1472 1472 1472 1472 1472 1472 1472 1472 1473 1473 1473 1474 1474 1474 1474 1474 1474 1474 1474 1474 1474 1474 1474 1474 1475 1475 1475 1475
1480 1480 1479 1479 1479 1479 1478 1478 1478 1477 1477 1476 1476 1476 1476 1476 1476 1476 1476 1476 1476 1476 1476 1476 1476 1476 1475 1475 1475 1475 1475 1475 1474 1474 1474 1474 1474 1474 1473 1473 1472 1472 1472 1471 1471 1470 1470 1470 1470 1470 1470 1470 1470 1470 1470 1470 1470 1470 1470 1470 1470 1471 1471 1471 1471 1471 1471 1472 1472 1472 1472 1473 1473 1473 1473 1473 1473 1473 1473 1473 1473 1473 1473 1473 1473 1473
1479 1479 1479 1478 1478 1478 1477 1477 1477 1476 1476 1476 1476 1476 1475 1475 1475 1475 1476 1476 1475 1475 1475 1475 1475 1475 1475 1474 1474 1473 1473 1473 1473 1472 1472 1472 1472 1472 1472 1471 1470 1470 1470 1470 1470 1469 1469 1469 1469 1468 1468 1468 1469 1469 1469 1469 1469 1469 1469 1469 1469 1469 1469 1469 1470 1470 1470 1470 1471 1471 1471 1471 1471 1471 1471 1471 1471 1471 1471 1471 1471 1471 1471 1471 1471 1471
1478 1478 1478 1477 1477 1477 1477 1476 1476 1476 1476 1475 1475 1475 1475 1475 1475 1475 1475 1475 1475 1475 1474 1474 1474 1474 1473 1473 1473 1472 1472 1472 1471 1471 1471 1470 1470 1471 1470 1470 1469 1468 1468 1468 1468 1468 1468 1467 1467 1467 1467 1467 1467 1467 1467 1467 1467 1467 1467 1468 1468 1468 1468 1468 1468 1469 1469 1469 1470 1470 1470 1470 1470 1470 1470 1470 1470 1470 1470 1470 1470 1470 1470 1470 1470 1470
1478 1477 1477 1477 1477 1476 1476 1476 1476 1476 1475 1475 1475 1475 1475 1475 1475 1475 1475 1474 1474 1474 1473 1473 1473 1472 1472 1472 1471 1471 1471 1471 1470 1470 1469 1469 1469 1469 1469 1468 1468 1467 1467 1467 1467 1467 1466 1466 1466 1466 1466 1466 1466 1466 1466 1466 1466 1466 1466 1466 1466 1466 1466 1467 1467 1467 1468 1468 1468 1468 1468 1468 1468 1468 1468 1468 1468 1468 1468 1468 1468 1468 1468 1468 1468 1468
1477 1477 1477 1476 1476 1476 1476 1475 1475 1475 1475 1475 1475 1475 1474 1474 1474 1474 1474 1473 1473 1473 1473 1472 1472 1471 1471 1471 1470 1470 1470 1470 1470 1469 1468 1467 1467 1467 1467 1467 1466 1465 1465 1465 1465 1465 1465 1465 1465 1465 1465 1465 1465 1464 1464 1464 1464 1464 1465 1465 1465 1465 1465 1465 1466 1466 1466 1466 1466 1467 1467 1467 1467 1467 1466 1466 1466 1466 1466 1466 1466 1466 1466 1466 1466 1466
1477 1476 1476 1476 1476 1475 1475 1475 1475 1475 1474 1474 1474 1474 1474 1473 1473 1473 1473 1472 1472 1472 1471 1471 1471 1470 1470 1470 1469 1469 1468 1469 1468 1467 1466 1465 1465 1465 1466 1465 1465 1464 1464 1464 1464 1464 1464 1464 1463 1463 1463 1463 1463 1463 1463 1463 1463 1463 1463 1463 1464 1464 1464 1464 1465 1465 1465 1465 1465 1465 1465 1465 1465 1465 1465 1465 1465 1465 1465 1465 1465 1464 1464 1464 1464 1464
1476 1475 1475 1475 1475 1475 1474 1474 1474 1474 1474 1473 1473 1473 1472 1472 1472 1472 1471 1471 1471 1470 1470 1470 1470 1470 1469 1469 1468 1468 1467 1467 1467 1466 1465 1464 1464 1464 1464 1464 1463 1463 1463 1463 1463 1463 1462 1462 1462 1462 1462 1462 1462 1462 1461 1461 1462 1462 1462 1462 1462 1463 1463 1463 1463 1463 1464 1464 1464 1464 1464 1464 1464 1463 1463 1463 1463 1463 1463 1463 1463 1462 1462 1462 1462 1462
1475 1474 1474 1474 1474 1474 1473 1473 1473 1472 1472 1472 1472 1472 1471 1471 1471 1470 1470 1470 1470 1469 1469 1469 1469 1468 1468 1468 1467 1466 1466 1466 1465 1465 1463 1462 1462 1462 1463 1463 1462 1462 1462 1462 1462 1461 1461 1461 1461 1461 1461 1460 1460 1460 1460 1460 1460 1461 1461 1461 1461 1461 1462 1462 1462 1462 1462 1462 1462 1462 1462 1462 1462 1462 1461 1461 1461 1461 1461 1461 1460 1460 1460 1460 1460 1460
1474 1473 1473 1473 1473 1473 1472 1472 1472 1471 1471 1471 1470 1470 1470 1470 1470 1469 1469 1469 1468 1468 1468 1467 1467 1467 1466 1466 1465 1465 1465 1464 1464 1463 1462 1461 1460 1461 1461 1461 1461 1460 1460 1460 1460 1460 1460 1460 1460 1460 1460 1459 1459 1459 1459 1460 1460 1460 1460 1460 1460 1460 1460 1460 1460 1461 1460 1460 1460 1460 1460 1460 1460 1460 1460 1460 1459 1459 1459 1459 1458 1458 1458 1458 1458 1457
1473 1472 1472 1472 1472 1471 1471 1471 1471 1470 1470 1470 1469 1469 1469 1468 1468 1468 1467 1467 1467 1466 1466 1466 1465 1465 1465 1464 1464 1464 1463 1463 1462 1462 1461 1460 1459 1460 1460 1460 1460 1459 1459 1459 1459 1459 1459 1459 1459 1459 1458 1458 1458 1458 1458 1459 1459 1459 1459 1459 1459 1459 1459 1459 1459 1459 1459 1459 1459 1459 1459 1458 1458 1458 1458 1457 1457 1457 1457 1456 1456 1456 1456 1455 1455 1455
1472 1471 1471 1471 1470 1470 1470 1470 1470 1470 1469 1468 1468 1468 1467 1467 1466 1466 1466 1465 1465 1465 1465 1464 1464 1463 1463 1463 1462 1462 1462 1462 1461 1460 1460 1459 1458 1458 1459 1459 1458 1458 1457 1458 1458 1458 1458 1458 1458 1458 1457 1457 1457 1457 1457 1457 1457 1458 1458 1458 1458 1458 1458 1458 1458 1458 1457 1457 1457 1457 1457 1457 1456 1456 1456 1455 1455 1455 1455 1454 1454 1454 1454 1453 1453 1453
1471 1470 1470 1470 1470 1469 1469 1469 1469 1469 1468 1467 1467 1467 1466 1466 1465 1465 1465 1464 1464 1464 1464 1463 1462 1461 1461 1461 1461 1460 1460 1460 1460 1460 1459 1458 1457 1457 1458 1457 1457 1456 1456 1456 1456 1456 1456 1456 1456 1456 1456 1456 1456 1456 1456 1456 1456 1456 1456 1456 1456 1456 1456 1456 1456 1456 1456 1456 1455 1455 1455 1455 1455 1454 1454 1453 1453 1453 1452 1452 1452 1452 1451 1451 1451 1451
1470 1470 1469 1469 1469 1468 1468 1468 1467 1467 1467 1467 1466 1466 1465 1465 1464 1464 1463 1463 1463 1463 1462 1462 1461 1460 1460 1460 1460 1459 1459 1459 1459 1459 1458 1457 1456 1456 1456 1456 1456 1455 1455 1455 1455 1455 1455 1455 1455 1455 1455 1455 1455 1455 1455 1455 1455 1455 1455 1455 1455 1455 1455 1455 1455 1455 1455 1454 1454 1454 1453 1453 1452 1452 1452 1451 1451 1451 1450 1450 1450 1450 1449 1449 1449 1448
1469 1468 1468 1468 1467 1467 1467 1466 1466 1466 1466 1465 1465 1465 1465 1464 1463 1463 1462 1462 1462 1462 1461 1461 1460 1459 1459 1458 1458 1458 1458 1458 1458 1457 1457 1456 1455 1455 1455 1455 1455 1454 1454 1453 1453 1454 1454 1454 1454 1453 1453 1453 1453 1453 1454 1454 1454 1454 1454 1454 1454 1454 1454 1454 1453 1453 1453 1452 1452 1451 1451 1451 1450 1450 1450 1449 1449 1449 1448 1448 1448 1447 1447 1446 1446 1446
1468 1467 1467 1466 1466 1465 1465 1465 1465 1464 1464 1464 1464 1464 1463 1463 1462 1462 1461 1461 1461 1461 1460 1460 1459 1459 1458 1457 1457 1457 1457 1457 1457 1456 1456 1455 1455 1454 1454 1454 1454 1453 1452 1452 1451 1452 1452 1452 1452 1452 1452 1452 1452 1452 1452 1453 1453 1453 1453 1453 1453 1452 1452 1452 1451 1451 1451 1450 1450 1449 1449 1449 1448 1448 1447 1447 1447 1446 1446 1446 1445 1445 1444 1444 1443 1443
1467 1466 1466 1465 1465 1465 1464 1464 1463 1463 1462 1462 1462 1462 1462 1462 1461 1461 1461 1460 1460 1460 1459 1459 1458 1458 1457 1457 1456 1455 1455 1456 1456 1456 1455 1455 1454 1453 1453 1453 1453 1452 1451 1451 1450 1449 1450 1450 1450 1450 1450 1450 1451 1451 1451 1451 1451 1451 1451 1451 1451 1451 1450 1450 1450 1449 1449 1448 1448 1447 1447 1446 1446 1445 1445 1445 1445 1444 1444 1444 1443 1442 1442 1441 1441 1441
1466 1465 1465 1465 1464 1464 1463 1462 1462 1461 1461 1461 1461 1460 1460 1460 1460 1460 1460 1459 1459 1459 1458 1458 1457 1457 1457 1456 1455 1455 1455 1455 1456 1455 1455 1454 1453 1452 1452 1452 1452 1451 1451 1450 1449 1448 1447 1447 1449 1449 1449 1449 1449 1450 1450 1450 1450 1450 1449 1449 1449 1449 1449 1448 1448 1447 1447 1446 1446 1445 1445 1445 1444 1444 1443 1443 1442 1442 1442 1441 1441 1440 1439 1439 1438 1438
1465 1465 1464 1464 1463 1462 1462 1461 1461 1460 1460 1460 1459 1459 1459 1459 1459 1458 1458 1458 1458 1457 1457 1457 1456 1456 1456 1455 1455 1454 1454 1455 1455 1455 1454 1453 1452 1451 1451 1451 1450 1450 1450 1450 1449 1449 1447 1445 1445 1447 1447 1447 1448 1448 1448 1448 1448 1448 1447 1447 1447 1447 1446 1446 1445 1445 1445 1444 1444 1443 1443 1442 1442 1441 1441 1440 1440 1440 1439 1439 1438 1438 1437 1436 1436 1435
1464 1463 1463 1462 1462 1461 1461 1460 1460 1459 1459 1458 1458 1458 1458 1457 1457 1457 1457 1457 1456 1456 1456 1456 1455 1455 1455 1454 1454 1453 1453 1454 1454 1454 1453 1452 1451 1450 1450 1450 1450 1449 1449 1449 1448 1448 1447 1445 1444 1444 1444 1445 1445 1445 1445 1445 1445 1445 1445 1445 1445 1444 1444 1444 1443 1442 1442 1442 1441 1441 1441 1440 1440 1439 1439 1438 1438 1437 1437 1436 1436 1435 1435 1434 1433 1433
1462 1462 1461 1461 1460 1460 1459 1459 1458 1458 1458 1457 1457 1457 1456 1456 1456 1456 1456 1455 1455 1455 1455 1455 1454 1454 1454 1453 1453 1452 1452 1453 1453 1453 1452 1451 1450 1450 1449 1449 1449 1448 1448 1447 1447 1446 1445 1444 1443 1442 1441 1441 1442 1442 1443 1443 1443 1442 1442 1442 1442 1441 1441 1441 1440 1440 1440 1439 1439 1439 1438 1438 1437 1437 1436 1436 1435 1435 1435 1434 1434 1433 1432 1432 1431 1430
1461 1461 1460 1460 1459 1459 1458 1458 1457 1457 1457 1456 1456 1456 1455 1455 1455 1455 1455 1455 1454 1454 1454 1453 1453 1453 1453 1452 1452 1451 1451 1452 1452 1452 1451 1450 1450 1449 1448 1448 1447 1447 1446 1446 1445 1445 1444 1443 1442 1441 1440 1439 1439 1440 1440 1440 1440 1440 1440 1440 1440 1439 1439 1439 1438 1438 1437 1437 1437 1436 1436 1436 1435 1435 1434 1434 1433 1433 1432 1432 1431 1431 1430 1430 1429 1428
1460 1459 1459 1458 1458 1457 1457 1456 1456 1456 1455 1455 1455 1455 1455 1454 1454 1454 1454 1453 1453 1453 1452 1452 1452 1452 1451 1451 1450 1450 1450 1450 1451 1450 1450 1449 1449 1448 1447 1446 1446 1446 1445 1445 1444 1443 1442 1441 1441 1440 1440 1438 1437 1437 1438 1439 1438 1438 1438 1438 1438 1437 1437 1437 1437 1436 1435 1435 1435 1435 1434 1434 1433 1432 1432 1431 1431 1430 1430 1430 1429 1429 1428 1428 1427 1426
1458 1458 1457 1457 1456 1456 1455 1455 1455 1455 1455 1454 1454 1454 1453 1453 1453 1453 1453 1452 1452 1452 1451 1451 1451 1451 1450 1450 1450 1449 1449 1449 1449 1449 1449 1448 1447 1447 1446 1445 1445 1445 1444 1444 1443 1442 1441 1440 1439 1439 1438 1437 1436 1436 1436 1436 1436 1436 1436 1436 1435 1435 1435 1435 1435 1434 1434 1433 1433 1432 1432 1431 1431 1430 1430 1429 1429 1428 1428 1427 1427 1427 1426 1425 1425 1424
1457 1456 1456 1456 1455 1455 1454 1454 1454 1454 1454 1453 1453 1453 1452 1452 1452 1452 1451 1451 1451 1450 1450 1450 1450 1450 1449 1449 1449 1448 1448 1448 1447 1447 1447 1446 1446 1445 1445 1444 1443 1443 1443 1442 1442 1441 1440 1440 1438 1437 1436 1436 1435 1435 1435 1435 1434 1434 1434 1434 1434 1434 1433 1433 1433 1432 1432 1431 1430 1430 1430 1429 1429 1428 1427 1427 1426 1426 1425 1425 1425 1424 1424 1423 1423 1422
1456 1455 1455 1455 1454 1454 1453 1453 1453 1453 1452 1452 1452 1452 1451 1451 1451 1451 1450 1450 1450 1450 1449 1449 1449 1448 1448 1448 1447 1447 1446 1446 1446 1445 1445 1445 1444 1443 1443 1442 1442 1441 1441 1441 1441 1440 1440 1439 1438 1437 1435 1435 1434 1434 1434 1434 1433 1433 1432 1432 1432 1432 1432 1431 1431 1430 1430 1429 1429 1428 1427 1427 1426 1426 1425 1425 1424 1423 1423 1422 1422 1422 1421 1420 1420 1420
1455 1454 1454 1453 1453 1452 1452 1452 1452 1452 1451 1451 1451 1451 1450 1450 1450 1450 1449 1449 1449 1449 1448 1448 1448 1447 1447 1446 1446 1446 1445 1445 1444 1444 1443 1443 1442 1442 1441 1440 1440 1440 1440 1440 1439 1439 1438 1438 1437 1436 1435 1434 1433 1432 1432 1432 1432 1432 1431 1430 1430 1430 1430 1430 1429 1429 1428 1427 1427 1426 1425 1425 1424 1424 1423 1422 1422 1421 1420 1420 1420 1419 1419 1418 1418 1417
1453 1453 1453 1452 1452 1451 1451 1451 1451 1450 1450 1450 1450 1450 1450 1449 1449 1449 1448 1448 1448 1448 1447 1447 1446 1446 1446 1445 1445 1445 1444 1444 1443 1442 1442 1441 1441 1440 1440 1439 1439 1439 1438 1438 1438 1437 1437 1436 1435 1435 1434 1433 1432 1431 1430 1430 1430 1431 1430 1429 1428 1428 1428 1428 1428 1427 1426 1425 1425 1424 1423 1422 1422 1421 1420 1420 1419 1419 1418 1418 1417 1417 1416 1416 1415 1415
1452 1452 1452 1451 1451 1450 1450 1450 1450 1450 1450 1449 1449 1449 1449 1448 1448 1448 1447 1447 1447 1447 1446 1446 1445 1445 1445 1444 1444 1443 1443 1442 1442 1441 1440 1440 1439 1439 1438 1438 1437 1437 1437 1436 1436 1435 1435 1435 1434 1434 1433 1432 1431 1430 1429 1429 1429 1429 1429 1428 1427 1426 1425 1426 1426 1426 1425 1424 1423 1422 1421 1420 1420 1419 1418 1417 1417 1416 1416 1415 1415 1415 1414 1414 1413 1412
1451 1451 1451 1450 1450 1450 1450 1449 1449 1449 1449 1448 1448 1448 1448 1448 1447 1447 1446 1446 1446 1445 1445 1445 1444 1443 1443 1443 1442 1442 1441 1441 1440 1440 1439 1438 1438 1437 1437 1436 1436 1436 1435 1435 1435 1434 1434 1434 1433 1432 1432 1431 1430 1429 1427 1427 1427 1427 1427 1426 1425 1424 1422 1422 1423 1423 1423 1422 1421 1420 1420 1419 1418 1416 1415 1415 1415 1414 1414 1413 1413 1412 1412 1411 1410 1410
1450 1450 1450 1450 1449 1449 1449 1448 1448 1448 1448 1448 1447 1447 1447 1447 1446 1446 1445 1445 1445 1444 1444 1443 1443 1442 1441 1441 1441 1440 1440 1439 1439 1438 1438 1437 1437 1436 1436 1435 1435 1435 1434 1434 1434 1433 1432 1432 1431 1431 1431 1430 1429 1428 1426 1425 1425 1425 1425 1424 1424 1423 1421 1420 1420 1420 1420 1420 1419 1419 1418 1417 1415 1414 1413 1413 1412 1412 1411 1411 1410 1410 1409 1409 1408 1407
1450 1449 1449 1449 1448 1448 1448 1448 1447 1447 1447 1447 1447 1446 1446 1446 1445 1445 1445 1444 1444 1443 1443 1442 1441 1441 1440 1440 1439 1439 1438 1438 1438 1437 1436 1436 1435 1435 1435 1435 1434 1434 1433 1433 1433 1432 1432 1431 1430 1430 1430 1429 1428 1426 1425 1424 1423 1423 1422 1422 1422 1420 1419 1419 1418 1418 1417 1417 1417 1416 1416 1415 1414 1412 1411 1410 1410 1409 1409 1408 1408 1407 1406 1406 1405 1405
1449 1449 1448 1448 1448 1447 1447 1447 1447 1446 1446 1446 1446 1445 1445 1445 1445 1444 1444 1443 1443 1442 1441 1441 1440 1440 1439 1438 1438 1438 1437 1437 1436 1436 1435 1435 1435 1434 1434 1434 1433 1433 1433 1432 1432 1431 1431 1430 1430 1429 1428 1427 1426 1425 1424 1423 1422 1421 1420 1420 1419 1419 1417 1417 1416 1416 1415 1415 1414 1414 1414 1413 1411 1410 1409 1408 1407 1406 1406 1405 1405 1404 1403 1403 1402 1402
1448 1448 1447 1447 1447 1447 1446 1446 1446 1446 1446 1445 1445 1445 1444 1444 1444 1443 1443 1442 1442 1441 1440 1440 1439 1439 1438 1437 1437 1436 1436 1436 1435 1435 1435 1435 1434 1434 1433 1433 1433 1432 1432 1431 1431 1430 1430 1429 1429 1428 1427 1426 1424 1422 1422 1421 1421 1420 1419 1418 1417 1416 1415 1415 1415 1414 1414 1413 1412 1412 1411 1410 1409 1408 1406 1405 1404 1403 1403 1402 1402 1401 1401 1400 1400 1399
1447 1447 1447 1446 1446 1446 1446 1446 1445 1445 1445 1445 1444 1444 1443 1443 1443 1442 1442 1441 1441 1440 1440 1439 1438 1438 1437 1437 1436 1436 1435 1435 1435 1434 1434 1434 1433 1433 1433 1432 1432 1431 1431 1430 1430 1429 1428 1428 1427 1426 1425 1424 1423 1421 1420 1420 1419 1418 1417 1416 1415 1415 1414 1413 1412 1412 1412 1411 1410 1410 1409 1408 1407 1406 1405 1403 1402 1400 1400 1400 1399 1399 1398 1398 1397 1396
1446 1446 1446 1446 1445 1445 1445 1445 1445 1445 1444 1444 1444 1443 1443 1442 1442 1441 1441 1440 1440 1439 1439 1438 1437 1437 1436 1436 1435 1435 1435 1434 1434 1433 1433 1432 1432 1432 1431 1431 1430 1430 1429 1428 1428 1427 1426 1425 1425 1424 1423 1423 1421 1420 1418 1417 1417 1417 1416 1415 1414 1413 1412 1411 1410 1410 1410 1409 1408 1408 1407 1406 1405 1405 1403 1402 1400 1398 1397 1396 1396 1396 1396 1395 1395 1394
1445 1445 1445 1445 1445 1445 1445 1444 1444 1444 1443 1443 1443 1442 1442 1441 1441 1440 1440 1440 1439 1438 1438 1437 1436 1436 1435 1435 1435 1434 1434 1433 1433 1432 1432 1431 1431 1430 1430 1429 1429 1428 1427 1426 1425 1425 1424 1423 1422 1421 1421 1421 1420 1419 1417 1416 1415 1415 1414 1413 1412 1411 1410 1409 1409 1408 1408 1407 1407 1406 1405 1405 1404 1403 1402 1400 1398 1396 1395 1393 1393 1393 1393 1393 1393 1392
1445 1445 1444 1444 1444 1444 1444 1443 1443 1443 1442 1442 1441 1441 1441 1440 1440 1440 1439 1439 1438 1437 1437 1436 1435 1435 1434 1434 1434 1433 1433 1432 1432 1431 1431 1430 1430 1429 1429 1428 1427 1427 1426 1425 1424 1423 1422 1421 1420 1419 1419 1419 1419 1418 1416 1415 1414 1413 1412 1411 1410 1410 1409 1408 1407 1407 1406 1406 1405 1404 1404 1403 1402 1401 1400 1399 1397 1395 1393 1391 1390 1390 1390 1390 1390 1390